Back to catalog

STARLINK-32404

AliveCommunicationsVLEO
NORAD 61710·PAYLOAD·🇺🇸 United States

Launched Oct 30, 2024 from Cape Canaveral Space Force Station

Loading…

Next Passes (next 24 hours)

TLE

FreshSource: CelesTrak SupGP

Epoch: Sep 14, 2026, 14:52 UTC

1 61710C 24196D   26257.61993056  .00037011  00000+0  10937-2 0  2578
2 61710  53.1592 301.2621 0001096  70.9888  93.3478 15.34367064    17

Track STARLINK-32404 in real time with AllMySat

Download on the App Store